Terminal Aerodrome Forecast
Issued by NWS Wakefield, VA

Home | Current Version | Previous Version | Text Only | Print | Product List | Glossary On
Versions: 1 2 3 4 5 6 7 8 9 10 11 12 13 14 15 16 17 18 19 20 21 22 23
000
FTUS41 KAKQ 231700
TAFRIC
TAF
KRIC 231737Z 2318/2418 32013G18KT P6SM SCT045
     FM232200 31009KT P6SM SKC
     FM240600 31005KT P6SM SKC
     FM241400 32012KT P6SM FEW200=

USA.gov is the U.S. government's official web portal to all federal, state and local government web resources and services.